N1ORT Weather Reports


time (UTC)temp
C
wind
direction
speed
KPH
gust
KPH
rain 1hr
cm
rain 24hr
cm
rain mn
cm
humidity
%
barometer
mb
20260507201651 16 21 4.8 19.3 0.00 0.03 0.03 30 1003.6
20260507201149 17 295 9.7 17.7 0.00 0.03 0.03 31 1003.5
20260507200645 16 18 3.2 24.1 0.00 0.03 0.03 31 1003.9
20260507200141 17 323 3.2 16.1 0.00 0.03 0.03 32 1003.5
20260507195638 16 192 6.4 25.7 0.00 0.03 0.03 30 1003.9
20260507195135 17 286 11.3 11.3 0.00 0.03 0.03 29 1003.5
20260507194631 17 324 3.2 9.7 0.00 0.03 0.03 31 1003.5
20260507194127 16 30 4.8 14.5 0.00 0.03 0.03 32 1003.9
20260507193624 16 280 16.1 24.1 0.00 0.03 0.03 31 1004.0
20260507193121 17 0 6.4 17.7 0.00 0.03 0.03 33 1003.8
20260507192617 17 344 8.0 17.7 0.00 0.03 0.03 32 1004.0
20260507192115 17 109 4.8 11.3 0.00 0.03 0.03 35 1004.1
20260507191610 16 295 3.2 14.5 0.00 0.03 0.03 33 1004.1
20260507191107 17 356 6.4 22.5 0.00 0.03 0.03 33 1004.0
20260507190604 16 292 11.3 27.4 0.00 0.03 0.03 36 1004.1
20260507185601 17 312 8.0 22.5 0.00 0.03 0.03 32 1004.2
20260507185057 17 262 6.4 11.3 0.00 0.03 0.03 35 1004.3
20260507184556 17 58 3.2 14.5 0.00 0.03 0.03 35 1004.4
20260507184053 17 20 4.8 8.0 0.00 0.03 0.03 34 1004.3
20260507183549 16 273 9.7 17.7 0.00 0.03 0.03 34 1004.0
20260507183046 17 297 11.3 17.7 0.00 0.03 0.03 34 1004.3
20260507182542 16 325 4.8 14.5 0.00 0.03 0.03 35 1004.3
20260507182038 16 42 9.7 17.7 0.00 0.03 0.03 32 1004.3
20260507181536 16 319 8.0 14.5 0.00 0.03 0.03 37 1004.6
20260507181032 16 308 14.5 38.6 0.00 0.03 0.03 35 1004.7
20260507180528 16 311 8.0 17.7 0.00 0.03 0.03 33 1004.5
20260507180025 16 283 0.0 25.7 0.00 0.03 0.03 36 1004.6
20260507175521 16 331 16.1 16.1 0.00 0.03 0.03 36 1004.5
20260507175019 16 311 3.2 16.1 0.00 0.03 0.03 34 1004.4
20260507174516 17 341 3.2 8.0 0.00 0.03 0.03 36 1004.2
20260507174014 17 8 3.2 11.3 0.00 0.03 0.03 34 1004.2
20260507173510 16 356 4.8 16.1 0.00 0.03 0.03 35 1004.4
20260507173008 17 294 9.7 20.9 0.00 0.03 0.03 35 1004.4
20260507172503 16 286 8.0 12.9 0.00 0.03 0.03 37 1004.3
20260507172000 16 320 11.3 14.5 0.00 0.03 0.03 37 1004.1
20260507171455 16 277 9.7 16.1 0.00 0.03 0.03 37 1004.4
20260507170953 16 274 6.4 14.5 0.00 0.03 0.03 38 1004.7
20260507170450 16 9 4.8 12.9 0.00 0.03 0.03 40 1004.8
20260507165946 15 331 12.9 14.5 0.00 0.03 0.03 39 1004.8
20260507165442 16 289 8.0 17.7 0.00 0.03 0.03 38 1005.1
20260507164938 15 342 8.0 29.0 0.00 0.03 0.03 37 1005.1
20260507164436 15 357 8.0 20.9 0.00 0.03 0.03 37 1005.0
20260507163932 15 279 19.3 19.3 0.00 0.03 0.03 40 1004.8
20260507163430 16 327 6.4 17.7 0.00 0.03 0.03 37 1004.9
20260507162927 15 277 6.4 14.5 0.00 0.03 0.03 42 1005.3
20260507162422 15 0 4.8 25.7 0.00 0.03 0.03 40 1004.9
20260507161919 16 316 14.5 22.5 0.00 0.03 0.03 41 1005.1
20260507161415 15 284 8.0 16.1 0.00 0.03 0.03 46 1004.9
20260507160912 15 67 6.4 12.9 0.00 0.03 0.03 53 1005.3
20260507160408 13 284 8.0 12.9 0.00 0.03 0.03 58 1005.3
20260507155904 13 318 6.4 22.5 0.00 0.03 0.03 56 1005.3
20260507155400 14 272 17.7 20.9 0.00 0.03 0.03 54 1005.0
20260507154857 15 279 6.4 17.7 0.00 0.03 0.03 55 1005.3
20260507154354 13 336 3.2 14.5 0.00 0.03 0.03 59 1005.2
20260507153948 14 351 6.4 20.9 0.00 0.03 0.03 57 1005.4
20260507153852 14 351 6.4 20.9 0.00 0.03 0.03 57 1005.4
20260507153607 14 175 3.2 12.9 0.00 0.03 0.03 58 1005.5
20260507153348 14 175 3.2 12.9 0.00 0.03 0.03 58 1005.5
20260507153153 13 0 3.2 6.4 0.00 0.03 0.03 58 1005.6
20260507152844 13 0 3.2 6.4 0.00 0.03 0.03 58 1005.6
20260507152432 14 338 4.8 8.0 0.00 0.03 0.03 61 1005.6
20260507152340 13 312 8.0 11.3 0.00 0.03 0.03 57 1005.6
20260507151837 14 338 4.8 8.0 0.00 0.03 0.03 61 1005.6
20260507151332 13 348 4.8 11.3 0.00 0.03 0.03 60 1006.0
20260507150830 13 303 11.3 14.5 0.00 0.03 0.03 59 1006.0
20260507150321 13 288 6.4 8.0 0.00 0.03 0.03 58 1006.0
20260507145817 13 18 8.0 9.7 0.00 0.03 0.03 58 1005.9
20260507145314 13 312 3.2 14.5 0.00 0.03 0.03 57 1006.1
20260507144811 13 0 3.2 14.5 0.00 0.03 0.03 62 1005.6
20260507144308 13 325 9.7 12.9 0.00 0.03 0.03 56 1005.9
20260507143804 14 2 3.2 14.5 0.00 0.03 0.03 57 1006.0
20260507143302 15 322 1.6 6.4 0.00 0.03 0.03 52 1005.7
20260507142758 14 302 8.0 9.7 0.00 0.03 0.03 57 1005.7
20260507142254 14 313 6.4 9.7 0.00 0.03 0.03 55 1005.8
20260507141751 13 255 12.9 22.5 0.00 0.03 0.03 52 1005.7
20260507141248 13 267 11.3 22.5 0.00 0.03 0.03 56 1005.7
20260507140744 14 263 11.3 17.7 0.00 0.03 0.03 58 1005.7
20260507140242 14 20 4.8 4.8 0.00 0.03 0.03 56 1005.8
20260507135738 13 63 9.7 9.7 0.00 0.03 0.03 55 1005.8
20260507135236 13 301 8.0 12.9 0.00 0.03 0.03 59 1005.7
20260507134732 13 315 4.8 8.0 0.00 0.03 0.03 57 1005.6
20260507134228 14 354 3.2 9.7 0.00 0.03 0.03 60 1005.7
20260507133724 13 98 4.8 9.7 0.00 0.03 0.03 60 1005.9
20260507133221 12 283 8.0 12.9 0.00 0.03 0.03 58 1005.9
20260507132719 12 322 6.4 14.5 0.00 0.03 0.03 61 1006.1
20260507132215 13 249 14.5 14.5 0.00 0.03 0.03 64 1006.1
20260507131712 13 258 17.7 17.7 0.00 0.03 0.03 66 1006.3
20260507131210 12 93 4.8 8.0 0.00 0.03 0.03 64 1006.4
20260507130706 12 319 8.0 11.3 0.00 0.03 0.03 65 1006.3
20260507130204 12 280 14.5 19.3 0.00 0.03 0.03 66 1006.2
20260507125703 12 256 8.0 12.9 0.00 0.03 0.03 69 1006.4
20260507125200 12 298 4.8 22.5 0.00 0.03 0.03 64 1006.2
20260507124656 12 56 6.4 8.0 0.00 0.03 0.03 66 1006.1
20260507124153 11 288 14.5 14.5 0.00 0.03 0.03 67 1006.3
20260507123652 11 15 3.2 8.0 0.00 0.03 0.03 68 1006.3
20260507123149 11 301 6.4 12.9 0.00 0.03 0.03 71 1006.4
20260507122644 11 297 8.0 29.0 0.00 0.03 0.03 72 1006.2
20260507122140 11 51 6.4 9.7 0.00 0.03 0.03 76 1006.1
20260507121636 11 271 4.8 6.4 0.00 0.03 0.03 77 1006.5
20260507121132 10 226 3.2 4.8 0.00 0.03 0.03 80 1006.6
20260507120628 10 332 3.2 4.8 0.00 0.03 0.03 81 1006.4
20260507120125 9 55 3.2 4.8 0.00 0.03 0.03 83 1006.4
20260507115621 9 215 0.0 6.4 0.00 0.03 0.03 83 1006.3
20260507115117 9 320 4.8 8.0 0.00 0.03 0.03 82 1006.2
20260507114613 9 332 0.0 8.0 0.00 0.03 0.03 83 1006.3
20260507114110 9 355 4.8 8.0 0.00 0.03 0.03 83 1006.3
20260507113608 9 30 3.2 4.8 0.00 0.03 0.03 83 1006.0
20260507113105 9 44 0.0 4.8 0.00 0.03 0.03 84 1006.2
20260507112603 8 89 0.0 6.4 0.00 0.03 0.03 84 1006.1
20260507112059 8 78 3.2 4.8 0.00 0.03 0.03 85 1006.0
20260507111556 8 16 3.2 6.4 0.00 0.03 0.03 84 1006.2
20260507111053 8 276 6.4 8.0 0.00 0.03 0.03 85 1006.2
20260507110549 8 63 4.8 6.4 0.00 0.03 0.03 85 1006.3
20260507110046 8 180 3.2 11.3 0.00 0.03 0.03 85 1006.2
20260507105543 8 7 3.2 6.4 0.00 0.03 0.03 85 1006.1
20260507105038 8 27 3.2 9.7 0.00 0.03 0.03 86 1005.8
20260507104536 8 48 3.2 8.0 0.00 0.03 0.03 86 1005.5
20260507104032 8 86 3.2 4.8 0.00 0.03 0.03 86 1005.7
20260507103528 8 69 6.4 11.3 0.00 0.03 0.03 86 1005.6
20260507103025 8 100 3.2 4.8 0.00 0.03 0.03 86 1005.8
20260507102522 8 343 3.2 4.8 0.00 0.03 0.03 87 1005.7
20260507102018 8 349 3.2 4.8 0.00 0.03 0.03 86 1005.6
20260507101514 8 320 4.8 4.8 0.00 0.03 0.03 87 1005.9
20260507101010 8 295 6.4 12.9 0.00 0.03 0.03 86 1005.5
20260507100508 8 228 0.0 9.7 0.00 0.03 0.03 87 1005.7
20260507100006 8 325 0.0 4.8 0.00 0.03 0.03 88 1005.5
20260507095503 8 8 4.8 9.7 0.00 0.03 0.03 88 1005.8
20260507094959 8 334 1.6 8.0 0.00 0.03 0.03 89 1005.8
20260507094456 8 309 3.2 6.4 0.00 0.03 0.03 90 1005.8
20260507093953 8 345 3.2 8.0 0.00 0.03 0.03 90 1005.8
20260507093450 8 287 1.6 8.0 0.00 0.03 0.03 90 1006.1
20260507092949 8 117 4.8 6.4 0.00 0.03 0.03 91 1005.6
20260507092445 8 21 3.2 9.7 0.00 0.03 0.03 91 1005.8
20260507091942 8 285 6.4 8.0 0.00 0.03 0.03 92 1005.8
20260507091438 8 25 4.8 6.4 0.00 0.03 0.03 93 1005.6
20260507090934 8 296 6.4 8.0 0.05 0.03 0.03 93 1005.9
20260507090430 8 352 3.2 9.7 0.05 0.03 0.03 94 1005.4
20260507085926 8 291 3.2 6.4 0.00 0.03 0.03 95 1005.6
20260507085424 8 307 3.2 8.0 0.00 0.03 0.03 95 1005.3
20260507084916 8 89 0.0 6.4 0.00 0.03 0.03 95 1005.9
20260507084412 8 246 0.0 4.8 0.00 0.03 0.03 95 1005.8
20260507083910 8 221 0.0 4.8 0.00 0.03 0.03 95 1005.5
20260507083406 8 251 1.6 3.2 0.00 0.03 0.03 95 1005.2
20260507082902 8 45 4.8 6.4 0.00 0.03 0.03 94 1005.2
20260507082358 8 51 4.8 4.8 0.00 0.03 0.03 93 1005.4
20260507081855 8 88 3.2 4.8 0.05 0.03 0.03 92 1005.3
20260507081351 8 332 1.6 3.2 0.05 0.03 0.03 92 1005.3
20260507080848 8 50 1.6 3.2 0.05 0.00 0.00 91 1005.2
20260507080344 9 35 1.6 8.0 0.05 0.00 0.00 89 1005.4
20260507075839 9 337 4.8 8.0 0.00 0.00 0.00 88 1005.4
20260507075336 9 260 1.6 4.8 0.00 0.00 0.00 88 1005.6
20260507074832 9 25 4.8 8.0 0.00 0.00 0.00 87 1005.6
20260507074330 9 349 8.0 11.3 0.00 0.00 0.00 87 1005.6
20260507073827 9 313 4.8 11.3 0.00 0.00 0.00 87 1005.3
20260507073324 9 18 4.8 14.5 0.00 0.00 0.00 88 1005.1
20260507072821 9 31 4.8 6.4 0.00 0.00 0.00 88 1005.4
20260507072318 10 43 6.4 8.0 0.00 0.00 0.00 88 1005.2
20260507071816 10 56 4.8 8.0 0.00 0.00 0.00 88 1004.9
20260507071312 10 60 4.8 6.4 0.00 0.00 0.00 88 1005.2
20260507070809 10 50 6.4 9.7 0.00 0.00 0.00 88 1005.1
20260507070306 10 7 1.6 8.0 0.00 0.00 0.00 89 1005.5
20260507065803 10 30 1.6 11.3 0.00 0.00 0.00 88 1005.2
20260507065259 10 80 8.0 9.7 0.00 0.00 0.00 89 1004.9
20260507064756 10 272 4.8 6.4 0.00 0.00 0.00 89 1004.6
20260507064255 10 305 4.8 8.0 0.00 0.00 0.00 89 1004.9
20260507063753 10 276 4.8 6.4 0.00 0.00 0.00 90 1005.1
20260507063249 10 60 3.2 8.0 0.00 0.00 0.00 90 1004.9
20260507062746 10 50 4.8 9.7 0.00 0.00 0.00 90 1004.7
20260507062243 10 15 3.2 12.9 0.00 0.00 0.00 90 1004.7
20260507061741 10 321 4.8 8.0 0.00 0.00 0.00 92 1004.7
20260507061239 10 309 3.2 4.8 0.00 0.00 0.00 92 1004.8
20260507060737 10 278 6.4 8.0 0.00 0.00 0.00 91 1004.7
20260507060233 10 327 6.4 20.9 0.00 0.00 0.00 91 1005.0
20260507055730 10 329 4.8 16.1 0.00 0.00 0.00 90 1004.9
20260507055225 10 278 8.0 11.3 0.00 0.00 0.00 90 1005.0
20260507054721 10 293 6.4 9.7 0.00 0.00 0.00 91 1005.2
20260507054219 10 29 4.8 9.7 0.00 0.00 0.00 91 1005.3
20260507053716 10 340 1.6 8.0 0.00 0.00 0.00 92 1005.3
20260507053214 10 359 3.2 6.4 0.00 0.00 0.00 93 1005.2
20260507052713 10 298 0.0 6.4 0.00 0.00 0.00 94 1005.1
20260507052208 10 7 4.8 6.4 0.00 0.00 0.00 94 1005.3
20260507051706 10 53 3.2 4.8 0.00 0.00 0.00 95 1005.4
20260507051203 10 22 0.0 6.4 0.00 0.00 0.00 95 1005.2
20260507050659 11 64 3.2 4.8 0.00 0.00 0.00 95 1005.0
20260507050156 11 8 0.0 3.2 0.00 0.00 0.00 95 1005.0
20260507045653 11 283 3.2 8.0 0.00 0.00 0.00 95 1004.8
20260507045149 11 273 11.3 16.1 0.00 0.00 0.00 95 1004.9
20260507044646 11 267 4.8 8.0 0.00 0.00 0.00 96 1004.9
20260507044143 11 324 3.2 9.7 0.00 0.00 0.00 95 1004.9
20260507043639 11 245 4.8 9.7 0.00 0.00 0.00 95 1005.1
20260507043136 11 291 6.4 9.7 0.00 0.00 0.00 95 1005.0
20260507042633 11 277 4.8 6.4 0.00 0.00 0.00 95 1005.1
20260507042127 11 6 0.0 8.0 0.00 0.00 0.00 95 1005.3
20260507041625 11 0 3.2 9.7 0.00 0.00 0.00 94 1005.5
20260507041122 11 288 4.8 22.5 0.00 0.00 0.00 94 1005.3
20260507040619 11 278 6.4 11.3 0.00 0.00 0.00 94 1005.1
20260507040115 11 266 8.0 8.0 0.00 0.00 0.00 94 1005.0
20260507035610 11 306 3.2 12.9 0.00 0.66 0.66 94 1004.8
20260507035101 12 324 4.8 8.0 0.00 0.66 0.66 96 1004.6
20260507034558 12 318 6.4 17.7 0.00 0.66 0.66 97 1004.7
20260507034056 12 0 4.8 8.0 0.00 0.66 0.66 98 1004.6
20260507033554 12 307 8.0 12.9 0.00 0.66 0.66 98 1004.5
20260507033051 12 71 3.2 14.5 0.00 0.66 0.66 99 1004.5
20260507032548 13 31 8.0 12.9 0.00 0.66 0.66 99 1004.2
20260507032044 13 343 1.6 12.9 0.00 0.66 0.66 99 1003.9
20260507031541 14 31 4.8 12.9 0.00 0.66 0.66 99 1004.2
20260507031038 14 327 8.0 9.7 0.00 0.66 0.66 99 1004.1
20260507030534 14 267 6.4 12.9 0.05 0.66 0.66 99 1004.0
20260507030032 15 354 6.4 11.3 0.05 0.66 0.66 99 1004.1
20260507025529 15 273 11.3 19.3 0.00 0.64 0.64 99 1003.8
20260507025027 15 31 1.6 4.8 0.00 0.64 0.64 99 1003.8
20260507024524 15 317 4.8 9.7 0.00 0.64 0.64 99 1003.7
20260507024021 15 219 0.0 11.3 0.00 0.64 0.64 99 1003.5
20260507023516 15 174 0.0 8.0 0.00 0.64 0.64 99 1003.5
20260507023015 15 267 6.4 12.9 0.00 0.64 0.64 99 1003.8
20260507022511 15 230 1.6 14.5 0.00 0.64 0.64 99 1003.6
20260507022006 15 26 0.0 4.8 0.00 0.64 0.64 99 1003.4
20260507021503 15 92 6.4 9.7 0.00 0.64 0.64 99 1003.5
20260507020959 15 287 4.8 8.0 0.00 0.64 0.64 99 1003.4
20260507020456 15 304 6.4 14.5 0.00 0.64 0.64 99 1003.5
20260507015953 15 268 3.2 11.3 0.00 0.64 0.64 99 1003.5
20260507015452 15 254 4.8 8.0 0.00 0.64 0.64 99 1003.7
20260507014949 15 56 0.0 9.7 0.00 0.64 0.64 99 1003.5
20260507014445 15 335 4.8 14.5 0.00 0.64 0.64 99 1003.9
20260507013941 15 266 4.8 17.7 0.00 0.64 0.64 99 1003.4
20260507013438 15 243 4.8 12.9 0.00 0.64 0.64 99 1003.8
20260507012935 15 107 4.8 12.9 0.00 0.64 0.64 99 1003.8
20260507012432 15 114 3.2 4.8 0.00 0.64 0.64 99 1003.7
20260507011928 15 248 1.6 9.7 0.00 0.64 0.64 99 1003.7
20260507011426 15 85 3.2 14.5 0.00 0.64 0.64 99 1003.7
20260507010920 15 95 3.2 11.3 0.00 0.64 0.64 99 1003.7
20260507010415 15 252 6.4 8.0 0.00 0.64 0.64 99 1003.7
20260507005913 15 89 3.2 12.9 0.00 0.64 0.64 99 1003.7
20260507005410 15 260 8.0 11.3 0.00 0.64 0.64 99 1004.0
20260507004906 15 72 0.0 4.8 0.00 0.64 0.64 99 1003.8
20260507004403 15 239 0.0 8.0 0.00 0.64 0.64 99 1003.9
20260507003900 15 113 3.2 9.7 0.00 0.64 0.64 99 1003.6
20260507003355 15 67 0.0 9.7 0.00 0.64 0.64 99 1003.6
20260507002851 15 60 9.7 9.7 0.00 0.64 0.64 99 1003.5
20260507002347 15 126 3.2 8.0 0.00 0.64 0.64 99 1003.8
20260507001845 15 18 3.2 6.4 0.00 0.64 0.64 99 1003.8
20260507001341 15 156 0.0 11.3 0.00 0.64 0.64 99 1003.6
20260507000838 15 290 3.2 11.3 0.00 0.64 0.64 99 1003.7
20260507000335 15 324 12.9 14.5 0.00 0.64 0.64 99 1003.7
20260506235830 15 72 4.8 12.9 0.00 0.64 0.64 99 1003.4
20260506235327 15 64 4.8 9.7 0.00 0.64 0.64 99 1003.7
20260506234823 15 295 3.2 9.7 0.05 0.64 0.64 99 1003.5
20260506234321 15 248 1.6 8.0 0.05 0.64 0.64 99 1003.3
20260506233818 15 75 6.4 8.0 0.05 0.64 0.64 99 1003.4
20260506233313 15 105 1.6 9.7 0.18 0.64 0.64 99 1003.4
20260506232811 15 80 3.2 12.9 0.36 0.61 0.61 99 1003.5
20260506232306 15 166 6.4 11.3 0.36 0.61 0.61 99 1003.5
20260506231803 15 86 3.2 9.7 0.18 0.56 0.56 99 1003.3
20260506231301 15 100 6.4 9.7 0.05 0.53 0.53 99 1003.7
20260506230758 15 205 3.2 8.0 0.13 0.53 0.53 99 1003.5
20260506230249 15 345 3.2 9.7 0.18 0.51 0.51 99 1003.9
20260506225745 15 248 6.4 11.3 0.30 0.51 0.51 99 1003.9
20260506225242 15 73 3.2 14.5 0.13 0.48 0.48 99 1003.7
20260506224733 15 263 0.0 8.0 0.00 0.46 0.46 99 1003.8
20260506224231 15 76 4.8 11.3 0.05 0.46 0.46 99 1003.8
20260506223727 15 282 0.0 11.3 0.05 0.46 0.46 99 1003.9
20260506223222 15 25 1.6 11.3 0.05 0.46 0.46 99 1003.9
20260506222720 15 73 1.6 6.4 0.05 0.46 0.46 99 1003.9
20260506222215 15 146 4.8 9.7 0.05 0.43 0.43 99 1004.0
20260506221713 15 106 4.8 9.7 0.13 0.43 0.43 99 1003.8
20260506221211 15 87 6.4 9.7 0.23 0.43 0.43 99 1004.2
20260506220708 15 253 4.8 9.7 0.36 0.43 0.43 99 1004.1
20260506220203 15 123 1.6 6.4 0.23 0.38 0.38 99 1004.0
20260506215700 15 94 4.8 8.0 0.05 0.36 0.36 99 1004.0
20260506215155 15 61 4.8 9.7 0.05 0.36 0.36 99 1004.1
20260506214652 15 233 1.6 11.3 0.05 0.36 0.36 99 1004.0
20260506214149 15 247 4.8 9.7 0.00 0.33 0.33 99 1004.3
20260506213648 15 348 3.2 8.0 0.00 0.33 0.33 99 1004.1
20260506213145 15 289 4.8 6.4 0.05 0.33 0.33 99 1004.2
20260506212642 15 106 8.0 14.5 0.13 0.33 0.33 98 1004.3
20260506212136 15 139 4.8 11.3 0.05 0.33 0.33 98 1004.5
20260506211633 15 336 11.3 14.5 0.05 0.33 0.33 98 1004.5
20260506211129 15 89 0.0 6.4 0.05 0.30 0.30 98 1004.8
20260506210627 15 247 4.8 9.7 0.13 0.30 0.30 98 1004.7
20260506210123 15 79 3.2 9.7 0.13 0.30 0.30 97 1004.6
20260506205620 15 343 4.8 17.7 0.13 0.28 0.28 97 1004.9
20260506205114 15 40 3.2 6.4 0.13 0.28 0.28 97 1004.6
20260506204613 15 274 8.0 14.5 0.05 0.28 0.28 96 1004.7
20260506204109 16 103 3.2 17.7 0.05 0.25 0.25 97 1004.7
20260506203608 16 178 4.8 17.7 0.13 0.25 0.25 97 1004.7
20260506203104 16 75 3.2 8.0 0.23 0.25 0.25 97 1004.8
20260506202602 16 77 4.8 8.0 0.18 0.23 0.23 96 1004.8
20260506202058 16 252 3.2 4.8 0.13 0.20 0.20 96 1004.6